Home > Weather > Pocatello > Past weeks

Flag for USA Weather for the Past 2 Weeks in Pocatello, Idaho, USA

Now
63 °F

Overcast.


Feels Like: 63 °F
Forecast: 54 / 74 °F
Wind: 9 mph from Southwest

Location: Pocatello Regional Airport

Current Time: May 6, 2016 at 4:03:34 AM

Latest Report: May 6, 2016 at 2:53 AM


Visibility: 10 mi

Pressure: 29.72 "Hg (25.33 "Hg at 1357m altitude)

Humidity: 45%

Dew Point: 41 °F

Location of PocatelloLocation

Historic Weather in Pocatello — Graph

°F

Pocatello Temperature Yesterday

Maximum temperature yesterday: 83 °F (at 2:53 PM)
Minimum temperature yesterday: 45 °F (at 6:53 AM)
Average temperature yesterday: 64 °F

High & Low Weather Summary for the Past Weeks

 TemperatureHumidityPressure
High83 °F (May 5, 2:53 PM)97% (Apr 30, 5:53 AM)30.22 "Hg (Apr 30, 5:53 AM)
Low33 °F (Apr 30, 4:53 AM)14% (Apr 22, 1:53 PM)29.52 "Hg (Apr 22, 9:53 PM)
Average52 °F59%29.88 "Hg
* Reported Apr 21 2:53 AM — May 6 2:53 AM, Pocatello, Weather by CustomWeather, © 2016

Note: Actual official high and low records may vary slightly from our data, if they occured in-between our weather recording intervals... More about our weather records

Advertising

Pocatello Weather History for the Previous 24 Hours

Scroll right to see more
 ConditionsComfort  
Time TempWeatherWind HumidityBarometerVisibility
2:53 AM
Fri, May 6
63 °FOvercast.9 mph45%29.72 "Hg10 mi
2:01 AM63 °FMostly cloudy.14 mph45%29.88 "Hg10 mi
12:53 AM58 °FClear.5 mph51%29.69 "Hg10 mi
11:53 PM
Thu, May 5
65 °FClear.10 mph37%29.69 "Hg10 mi
10:53 PM65 °FClear.10 mph40%29.71 "Hg10 mi
9:53 PM63 °FPassing clouds.No wind48%29.74 "Hg10 mi
8:53 PM65 °FPassing clouds.7 mph51%29.73 "Hg10 mi
7:53 PM68 °FPassing clouds.No wind44%29.73 "Hg10 mi
6:53 PM73 °FPassing clouds.6 mph34%29.72 "Hg10 mi
5:53 PM78 °FPassing clouds.12 mph21%29.72 "Hg10 mi
4:53 PM80 °FScattered clouds.16 mph18%29.72 "Hg10 mi
3:53 PM80 °FScattered clouds.7 mph18%29.74 "Hg10 mi
2:53 PM83 °FScattered clouds.16 mph15%29.75 "Hg10 mi
1:53 PM81 °FPassing clouds.10 mph16%29.77 "Hg10 mi
12:53 PM78 °FSunny.6 mph25%29.79 "Hg10 mi
11:53 AM75 °FSunny.5 mph30%29.82 "Hg10 mi
10:53 AM70 °FSunny.7 mph39%29.83 "Hg10 mi
9:53 AM64 °FSunny.3 mph49%29.85 "Hg10 mi
8:53 AM54 °FSunny.3 mph67%29.88 "Hg10 mi
7:53 AM49 °FPassing clouds.3 mph80%29.88 "Hg10 mi
6:53 AM45 °FClear.7 mph86%29.86 "Hg10 mi
5:53 AM47 °FClear.3 mph80%29.84 "Hg10 mi
4:53 AM48 °FClear.5 mph74%29.85 "Hg10 mi
Weather by CustomWeather, © 2016

See weather overviewHow to use our weather pages